Weather in Bilotserkivka

Ukraine / Poltava Region     49°40′25″N   33°48′07″E
temp.,
°C
wind,
m/s
gust,
m/s
humid.,
%
clouds,
%
prec.,
mm/h
press.,
hPa
HPBL,
m
26 october, tue
tue2600:00+1sse22612 0.0 103415
03:000s22645 0.0 103417
06:000s34695 0.0 103344
09:00+2s35625 0.0 1033175
12:00+8ssw56415 0.0 1033749
15:00+9ssw563447 0.0 1030924
18:00+5ssw334755 0.0 103039
21:00+4s47508 0.0 1029112
27 october, wed
wed2700:00+2s48485 0.0 1029125
03:00+1ssw48453 0.0 1029125
06:00+1ssw48610 0.0 1028133
09:00+3ssw59660 0.0 1027262
12:00+9sw57490 0.0 1026747
15:00+11sw675514 0.0 10241044
18:00+7sw33740 0.0 102432
21:00+6wsw228276 0.0 102422
28 october, thu
thu2800:00+5w237396 0.0 102419
03:00+5wnw2278100 0.0 102417
06:00+5wsw3487100 0.0 102449
09:00+7wsw4879100 0.0 1024218
12:00+11wsw5962100 0.0 1023580
15:00+14wnw685876 0.0 10211024
18:00+12wnw4972100 0.0 1021448
21:00+9nw3887100 0.0 1022193
29 october, fri
fri2900:00+8nw39956 0.0 1024210
03:00+10nnw478056 0.0 1024499
06:00+7nnw35935 0.0 102686
09:00+7n35885 0.0 1027181
12:00+12ne33625 0.0 1028728
15:00+14ene235312 0.0 10281134
18:00+9ene45715 0.0 102977
21:00+7e36850 0.0 1030112
30 october, sat
sat3000:00+6ese36900 0.0 103191
03:00+5se34905 0.0 103259
06:00+5se358957 0.0 103274
09:00+6se37795 0.0 1033173
12:00+12sse46540 0.0 1033710
15:00+14sse45450 0.0 10311032
18:00+9se33600 0.0 103228
21:00+7se36660 0.0 103284